Amateur Radio Satellites - All Passes

Search period start: 19 May 2013 11:27
Search period end: 20 May 2013 11:27
Location: Waldport, 44.4270°N, 124.0680°W

Satellite Date Start Highest point End Downlink Frequencies (MHz)
Time Altitude Azimuth
ISS 19 May 11:32:05 11:35:07 31° 221° (SW) 11:38:09 145.800 FM
PCSat 19 May 11:45:37 11:47:13 11° 332° (NNW) 11:48:49 145.825 MHz
OPAL 19 May 12:02:43 12:07:47 84° 287° (WNW) 12:12:46 ?
HO-68 19 May 12:09:35 12:16:07 40° 298° (WNW) 12:22:38 435.675 MHz FM
MaSat-1 19 May 12:11:05 12:14:36 39° 55° (NE) 12:17:25 437.345 MHz
SO-50 19 May 12:15:01 12:18:22 19° 324° (NW) 12:21:41 436.795 FM
UOSAT-12 19 May 12:17:04 12:20:37 23° 113° (ESE) 12:24:11 437.025 FM, 437.400 FM
Oscar 11 19 May 12:39:55 12:42:25 15° 298° (WNW) 12:44:54 145.825 FM, Beacon 2401.500 USB
Uribyol 2 19 May 12:41:08 12:43:14 13° 56° (NE) 12:45:21 436.500 FM
Oscar 19 19 May 12:50:26 12:53:41 17° 59° (ENE) 12:56:56 437.125 CW, 437.150 USB
JAS-2 19 May 12:50:42 12:56:18 25° 303° (WNW) 13:01:26 435.800 - 435.900 CW/SSB, 435.910 FM
Oscar 16 19 May 13:27:10 13:31:58 39° 68° (ENE) 13:36:47 437.025 USB, Beacon 2401.1428
AO-27 19 May 13:28:06 13:32:33 30° 65° (ENE) 13:37:03 436.795 MHz FM
ITAMSAT 1 19 May 13:35:29 13:40:05 34° 66° (ENE) 13:44:44 435.822 SSB
OPAL 19 May 13:43:42 13:45:53 13° 306° (NW) 13:48:04 ?
UOSAT-12 19 May 13:56:09 14:00:30 46° 311° (NW) 14:04:55 437.025 FM, 437.400 FM
Uribyol 2 19 May 14:16:43 14:21:53 81° 74° (ENE) 14:27:07 436.500 FM
Oscar 19 19 May 14:27:15 14:32:26 74° 257° (WSW) 14:37:40 437.125 CW, 437.150 USB
Uosat F 19 May 14:49:43 14:53:49 26° 64° (ENE) 14:57:56 435.120 FM
TMSAT-1 19 May 14:53:44 14:57:01 17° 59° (ENE) 15:00:19 436.925 FM
Saudisat 1A 19 May 14:57:19 15:01:29 33° 45° (NE) 15:05:34 436.775 MHz
AO-Echo 19 May 14:59:13 15:04:04 66° 73° (ENE) 15:08:49 ?
Oscar 16 19 May 15:06:58 15:11:25 29° 265° (W) 15:15:54 437.025 USB, Beacon 2401.1428
AO-27 19 May 15:07:13 15:11:59 37° 263° (W) 15:16:47 436.795 MHz FM
Gurwin Techsat 1B 19 May 15:11:37 15:16:20 34° 66° (ENE) 15:21:04 435.225 FM
ITAMSAT 1 19 May 15:14:58 15:19:35 33° 264° (W) 15:24:15 435.822 SSB
PCSat 19 May 15:18:49 15:20:02 11° 27° (NNE) 15:21:16 145.825 MHz
AO-7 19 May 15:21:43 15:27:50 24° 50° (NE) 15:33:57 29.400 - 29.500 MHz
UOSAT-12 19 May 15:40:23 15:41:50 11° 333° (NNW) 15:43:17 437.025 FM, 437.400 FM
Sapphire 19 May 15:50:25 15:53:32 15° 34° (NE) 15:56:38 437.095 MHz 1200 baud AX-25 AFSK
Uribyol 2 19 May 15:59:38 16:02:02 13° 272° (W) 16:04:27 436.500 FM
RS-15 19 May 16:16:50 16:26:38 31° 104° (ESE) 16:36:06 29.354 - 29.394 USB, Beacon 29.352 USB
Uosat F 19 May 16:27:43 16:32:25 41° 262° (W) 16:37:10 435.120 FM
TMSAT-1 19 May 16:31:04 16:36:21 76° 257° (WSW) 16:41:40 436.925 FM
Saudisat 1A 19 May 16:37:04 16:41:12 35° 244° (WSW) 16:45:14 436.775 MHz
AO-Echo 19 May 16:40:35 16:43:18 15° 270° (W) 16:46:00 ?
Gurwin Techsat 1B 19 May 16:51:28 16:56:16 34° 264° (W) 17:01:06 435.225 FM
PCSat 19 May 16:59:57 17:05:04 40° 50° (NE) 17:10:09 145.825 MHz
AO-7 19 May 17:11:16 17:19:34 88° 71° (ENE) 17:27:57 29.400 - 29.500 MHz
SO-50 19 May 17:23:12 17:26:41 21° 38° (NE) 17:30:07 436.795 FM
Sapphire 19 May 17:32:38 17:38:04 65° 56° (NE) 17:43:27 437.095 MHz 1200 baud AX-25 AFSK
JAS-1B 19 May 18:25:18 18:32:02 25° 57° (ENE) 18:38:04 435.800 - 435.900 CW/SSB
RS-15 19 May 18:25:51 18:37:56 82° 306° (NW) 18:49:30 29.354 - 29.394 USB, Beacon 29.352 USB
Hamsat 19 May 18:34:48 18:38:06 23° 66° (ENE) 18:41:26 145.90 MHz
PCSat 19 May 18:43:33 18:48:26 35° 249° (WSW) 18:53:17 145.825 MHz
SO-50 19 May 19:03:14 19:07:46 67° 238° (WSW) 19:12:12 436.795 FM
AO-7 19 May 19:07:37 19:13:23 20° 270° (W) 19:19:13 29.400 - 29.500 MHz
STRAND 1 19 May 19:10:07 19:14:50 36° 97° (E) 19:19:32 ?
Sapphire 19 May 19:17:08 19:20:58 20° 254° (WSW) 19:24:48 437.095 MHz 1200 baud AX-25 AFSK
JAS-2 19 May 19:39:42 19:40:48 10° 44° (NE) 19:41:54 435.800 - 435.900 CW/SSB, 435.910 FM
SO-67 19 May 19:44:11 19:47:31 38° 72° (ENE) 19:50:52 435.3500 MHz FM
Hamsat 19 May 20:10:11 20:14:01 34° 264° (W) 20:17:54 145.90 MHz
JAS-1B 19 May 20:12:24 20:21:51 88° 254° (WSW) 20:29:57 435.800 - 435.900 CW/SSB
RS-15 19 May 20:41:52 20:52:18 35° 334° (NNW) 21:02:22 29.354 - 29.394 USB, Beacon 29.352 USB
UOSAT-12 19 May 20:44:16 20:48:31 35° 46° (NE) 20:52:44 437.025 FM, 437.400 FM
STRAND 1 19 May 20:49:28 20:53:57 31° 294° (WNW) 20:58:26 ?
HO-68 19 May 20:52:04 20:58:36 41° 62° (ENE) 21:05:10 435.675 MHz FM
JAS-2 19 May 21:16:42 21:23:50 43° 65° (ENE) 21:31:06 435.800 - 435.900 CW/SSB, 435.910 FM
SO-67 19 May 21:19:13 21:21:10 14° 269° (W) 21:23:08 435.3500 MHz FM
OPAL 19 May 21:41:26 21:45:53 30° 63° (ENE) 21:50:20 ?
Oscar 11 19 May 21:59:11 22:03:26 59° 73° (ENE) 22:07:42 145.825 FM, Beacon 2401.500 USB
JAS-1B 19 May 22:06:33 22:13:04 21° 270° (W) 22:19:03 435.800 - 435.900 CW/SSB
UOSAT-12 19 May 22:24:32 22:28:39 33° 244° (WSW) 22:32:45 437.025 FM, 437.400 FM
HO-68 19 May 22:39:33 22:46:15 43° 261° (W) 22:53:00 435.675 MHz FM
RS-15 19 May 22:59:54 23:09:14 27° 9° (N) 23:18:15 29.354 - 29.394 USB, Beacon 29.352 USB
JAS-2 19 May 23:01:24 23:08:42 47° 263° (W) 23:16:15 435.800 - 435.900 CW/SSB, 435.910 FM
OPAL 19 May 23:19:46 23:24:38 40° 260° (W) 23:29:30 ?
Oscar 11 19 May 23:37:52 23:40:03 14° 270° (W) 23:42:15 145.825 FM, Beacon 2401.500 USB
KITSAT 1 19 May 23:58:04 00:05:52 56° 114° (ESE) 00:13:44 435.175 FM
AO-40 19 May 23:59:13 05:11:29 35° 161° (SSE) 08:00:19 Beacon 2401.320
RS-15 20 May 01:14:09 01:25:05 51° 41° (NE) 01:35:36 29.354 - 29.394 USB, Beacon 29.352 USB
Oscar 16 20 May 01:39:29 01:41:14 12° 87° (E) 01:42:59 437.025 USB, Beacon 2401.1428
KITSAT 1 20 May 01:54:00 02:01:33 42° 316° (NW) 02:09:11 435.175 FM
Uribyol 2 20 May 02:28:27 02:32:47 26° 94° (E) 02:37:06 436.500 FM
Oscar 19 20 May 02:37:35 02:42:20 35° 97° (E) 02:47:01 437.125 CW, 437.150 USB
MaSat-1 20 May 02:42:42 02:49:37 53° 112° (ESE) 02:55:24 437.345 MHz
AO-Echo 20 May 03:05:44 03:08:55 18° 92° (E) 03:12:08 ?
Oscar 16 20 May 03:16:06 03:21:20 90° 287° (WNW) 03:26:30 437.025 USB, Beacon 2401.1428
AO-27 20 May 03:18:02 03:23:16 70° 103° (ESE) 03:28:28 436.795 MHz FM
ITAMSAT 1 20 May 03:25:27 03:30:42 79° 104° (ESE) 03:35:56 435.822 SSB
RS-15 20 May 03:26:57 03:37:37 56° 246° (WSW) 03:48:03 29.354 - 29.394 USB, Beacon 29.352 USB
Gurwin Techsat 1B 20 May 03:28:28 03:29:55 11° 86° (E) 03:31:21 435.225 FM
KITSAT 1 20 May 03:54:22 03:59:31 18° 344° (NNW) 04:04:43 435.175 FM
Uribyol 2 20 May 04:07:30 04:12:26 43° 291° (WNW) 04:17:22 436.500 FM
ISS 20 May 04:15:12 04:18:14 33° 140° (SE) 04:21:17 145.800 FM
Oscar 19 20 May 04:17:04 04:21:37 32° 294° (WNW) 04:26:07 437.125 CW, 437.150 USB
MaSat-1 20 May 04:25:49 04:31:59 34° 306° (NW) 04:37:08 437.345 MHz
Uosat F 20 May 04:33:28 04:38:24 53° 101° (E) 04:43:18 435.120 FM
AO-Echo 20 May 04:43:27 04:48:03 53° 288° (WNW) 04:52:42 ?
TMSAT-1 20 May 04:45:29 04:50:27 39° 97° (E) 04:55:23 436.925 FM
Oscar 16 20 May 04:57:24 04:59:57 14° 303° (WNW) 05:02:28 437.025 USB, Beacon 2401.1428
AO-27 20 May 04:58:50 05:02:14 18° 300° (WNW) 05:05:38 436.795 MHz FM
Gurwin Techsat 1B 20 May 05:05:19 05:10:41 85° 104° (ESE) 05:16:00 435.225 FM
ITAMSAT 1 20 May 05:06:30 05:09:34 16° 302° (WNW) 05:12:37 435.822 SSB
AO-7 20 May 05:11:44 05:18:32 27° 93° (E) 05:25:17 29.400 - 29.500 MHz
ISS 20 May 05:51:42 05:54:54 42° 338° (NNW) 05:58:07 145.800 FM
KITSAT 1 20 May 05:53:41 05:58:46 17° 15° (NNE) 06:03:51 435.175 FM
Uosat F 20 May 06:13:07 06:16:51 21° 298° (WNW) 06:20:34 435.120 FM
TMSAT-1 20 May 06:25:41 06:30:15 30° 295° (WNW) 06:34:49 436.925 FM
STRAND 1 20 May 06:27:45 06:32:45 61° 72° (ENE) 06:37:48 ?
Saudisat 1A 20 May 06:45:25 06:49:43 42° 118° (ESE) 06:54:04 436.775 MHz
Gurwin Techsat 1B 20 May 06:47:00 06:49:57 15° 302° (WNW) 06:52:54 435.225 FM
AO-7 20 May 07:03:41 07:12:00 73° 293° (WNW) 07:20:19 29.400 - 29.500 MHz
ISS 20 May 07:29:26 07:32:12 23° 358° (N) 07:34:57 145.800 FM
PCSat 20 May 07:44:32 07:48:46 24° 108° (ESE) 07:53:02 145.825 MHz
KITSAT 1 20 May 07:49:16 07:56:50 40° 42° (NE) 08:04:21 435.175 FM
Hamsat 20 May 07:54:40 07:58:43 37° 97° (E) 08:02:46 145.90 MHz
JAS-1B 20 May 07:58:51 08:03:06 19° 88° (E) 08:07:07 435.800 - 435.900 CW/SSB
STRAND 1 20 May 08:09:03 08:12:23 17° 269° (W) 08:15:44 ?
Sapphire 20 May 08:16:21 08:21:23 42° 113° (ESE) 08:26:28 437.095 MHz 1200 baud AX-25 AFSK
Saudisat 1A 20 May 08:25:32 08:29:33 29° 317° (NW) 08:33:37 436.775 MHz
SO-67 20 May 08:42:38 08:46:03 40° 98° (E) 08:49:26 435.3500 MHz FM
AO-7 20 May 08:58:01 09:03:26 19° 314° (NW) 09:08:51 29.400 - 29.500 MHz
ISS 20 May 09:06:27 09:09:34 34° 18° (NNE) 09:12:40 145.800 FM
SO-50 20 May 09:20:29 09:24:32 28° 114° (ESE) 09:28:34 436.795 FM
PCSat 20 May 09:26:31 09:31:49 55° 306° (NW) 09:37:10 145.825 MHz
Hamsat 20 May 09:31:13 09:34:36 23° 294° (WNW) 09:38:00 145.90 MHz
KITSAT 1 20 May 09:44:40 09:52:38 61° 245° (WSW) 10:00:33 435.175 FM
JAS-1B 20 May 09:48:19 09:54:32 61° 290° (WNW) 10:00:08 435.800 - 435.900 CW/SSB
Sapphire 20 May 10:00:01 10:04:54 34° 312° (NW) 10:09:50 437.095 MHz 1200 baud AX-25 AFSK
HO-68 20 May 10:05:03 10:11:29 35° 96° (E) 10:17:53 435.675 MHz FM
JAS-2 20 May 10:10:36 10:16:37 29° 90° (E) 10:22:01 435.800 - 435.900 CW/SSB, 435.910 FM
SO-67 20 May 10:17:11 10:19:11 14° 295° (WNW) 10:21:11 435.3500 MHz FM
ISS 20 May 10:43:06 10:46:24 52° 216° (SW) 10:49:41 145.800 FM
SO-50 20 May 11:00:27 11:05:01 43° 312° (NW) 11:09:31 436.795 FM
PCSat 20 May 11:13:54 11:16:31 13° 328° (NNW) 11:19:09 145.825 MHz

Developed and maintained by Chris Peat, Heavens-Above GmbH. Please read the updated FAQ before sending e-mail. Imprint. DLR
